Location: Killam
(52.7910°N, 111.8608°W)
Time: 10:24:56
(UTC+00:00)

SR - Pass Details

Date: 23 February 2026
Orbit: 573 x 848 km, 66.7° (Epoch: 7 March)

Event Time Altitude Azimuth Distance (km) Brightness Sun altitude
Exits shadow 11:44:05 57° 1° (N) 729 ? -25.2°
Drops below altitude 10° 11:48:01 10° 37° (NE) 2,053 ? -24.6°
Sets 11:50:25 0° 40° (NE) 3,012 ? -24.2°
